Regional Weather Roundup
Issued by NWS

Home | Current Version | Previous Version | Graphics & Text | Print | Product List | Glossary On
Versions: 1 2 3 4 5 6 7 8 9 10 11 12 13 14 15 16 17 18 19 20 21 22 23 24 25 26 27 28 29 30 31 32 33 34 35 36 37 38 39 40 41 42 43 44 45 46 47 48 49 50
000
ASUS44 KMEG 290400
RWRTN
TENNESSEE HOURLY STATE WEATHER ROUNDUP
NATIONAL WEATHER SERVICE MEMPHIS TN
1000 PM CST WED JAN 28 2015

TNZ002-004-019-021-049-052-054-088>092-290500-
WEST TENNESSEE

CITY           SKY/WX    TMP DP  RH WIND       PRES   REMARKS
MEMPHIS INTL   MOCLDY    53  32  44 S10       30.08F
NWS MEMPHIS      N/A     51 N/A N/A MISG        N/A
JACKSON        MOCLDY    50  29  44 S13       30.10F
DYERSBURG      MOCLDY    48  25  40 S10G17    30.07F
UNION CITY     CLEAR     45  30  57 S12       30.05S
PARIS          CLEAR     43  27  52 S13       30.07F
LEXINGTON      CLEAR     43  28  56 S3        30.13S
SAVANNAH       CLEAR     45  28  53 S6        30.16R
$$

TNZ008-025-027-028-033-062-065-066-290500-
NORTH MIDDLE TENNESSEE

CITY           SKY/WX    TMP DP  RH WIND       PRES   REMARKS
NASHVILLE      PTCLDY    40  27  59 S5        30.16R
CLARKSVILLE    MOCLDY    39  27  62 SE8       30.12R WCI  33
COOKEVILLE     CLEAR     37  18  44 S6        30.14F WCI  33
CROSSVILLE     CLEAR     34   9  35 SE3       30.18F
$$

TNZ061-075-076-078-094-096-097-290500-
SOUTH MIDDLE TENNESSEE

CITY           SKY/WX    TMP DP  RH WIND       PRES   REMARKS
FAYETTEVILLE   CLEAR     41  23  48 MISG      30.17S
TULLAHOMA      CLEAR     39  19  45 SE5       30.17R
WINCHESTER     CLEAR     39  23  52 SE5       30.17S
SHELBYVILLE    CLEAR     43  27  52 SE6       30.17S
$$

TNZ017-018-042-046-047-290500-
NORTHEAST TENNESSEE

CITY           SKY/WX    TMP DP  RH WIND       PRES   REMARKS
TRI CITIES     PTCLDY    25  20  81 CALM      30.26F
ELIZABETHTON   CLEAR     27  21  80 NE6       30.26S WCI  20
$$

TNZ012-013-036-069-073-074-290500-
CENTRAL EAST TENNESSEE

CITY           SKY/WX    TMP DP  RH WIND       PRES   REMARKS
KNOXVILLE      CLEAR     29  22  75 NE3       30.24F
OAK RIDGE      CLEAR     30  22  72 CALM      30.26F
GATLINBURG     CLEAR     25  19  80 CALM      30.24F
$$

TNZ083-085-099-290500-
SOUTHEAST TENNESSEE

CITY           SKY/WX    TMP DP  RH WIND       PRES   REMARKS
CHATTANOOGA    CLEAR     33  23  66 CALM      30.25F
$$

SKY/WX REPORTED AS FAIR MEANS FEW OR NO CLOUDS BELOW
12 THOUSAND FEET.



USA.gov is the U.S. government's official web portal to all federal, state and local government web resources and services.